Location: Calberlah
(52.4230°N, 10.6240°E)
Time: 17:17:53
(UTC+00:00)

IKONOS-2 - Pass Details

Date: 19 May 2025
Orbit: 576 x 585 km, 98.2° (Epoch: 16 June)

Event Time Altitude Azimuth Distance (km) Brightness Sun altitude
Rises 20:20:30 0° 16° (NNE) 2,807 8.4 -8.4°
Reaches altitude 10° 20:22:40 10° 19° (NNE) 1,904 7.5 -8.6°
Maximum altitude 20:26:47 71° 104° (ESE) 617 4.4 -9.0°
Drops below altitude 10° 20:30:53 10° 188° (S) 1,892 6.7 -9.4°
Enters shadow 20:32:33 - 190° (S) 2,591 7.4 -9.6°
